www.pogodaiklimat.ru

Погода и климат >> Архив погоды >> Россия >> Курская область >> Обоянь


ПОГОДА в Обояни

  • Прогноз погоды в Обояни
  • Монитор погоды в Обояни

АРХИВ ПОГОДЫ в Обояни

Время (UTC), дата Ветер
(напр.,м/с)
 
Видим.   Явления Облачность Т
(С)
Тd
(С)
f
(%)
Тe
(С)
Тes
(С)
Комфортность P
(гПа)
Po
(гПа)
Тmin
(С)
Tmax
(С)
R
(мм)
R24
(мм)
S
(см)
06 16.08 ЮЗ 1 50 км 4/0
[Ci fib]
+25.9 +15.3 52 +29 +36 душно 1006.6 985.0 +18.0
09 16.08 СЗ 2 50 км 8/0
[Ci fib]
+30.8 +10.3 28 +31 +42 жарко 1005.0 983.8
12 16.08 З 3 50 км 8/3 600 м
[Cu med, cong Ci fib]
+31.4 +11.0 29 +32 +36 жарко 1004.6 983.4
15 16.08 З 1 50 км 8/6 600 м
[Cu med, cong Ci fib]
+29.8 +10.7 31 +30 +31 жарко 1004.5 983.2
18 16.08 СЗ 2 10 км 6/0
[Ci fib]
+23.8 +17.3 67 +28 +28 душно 1005.7 983.9 +31.8
21 16.08 З 1 10 км 6/0
[Ac und]
+21.1 +17.8 81 +25 +25 комфорт 1006.6 984.7
00 17.08 З 1 10 км 8/0
[Ac und]
+18.9 +17.3 90 +21 +21 комфорт 1006.8 984.7
03 17.08 СЗ 2 10 км 10/0
[As op]
+18.9 +17.3 90 +21 +21 комфорт 1006.9 984.8 +18.2
06 17.08 СЗ 1 50 км 10/0
[As op]
+20.7 +16.8 78 +25 +27 комфорт 1006.9 984.9 +18.2
09 17.08 З 1 50 км 10/10 600 м
[Cb calv]
+21.8 +17.1 75 +26 +26 душно 1007.4 985.5
12 17.08 штиль 0 50 км гроза без осадков 10/10 600 м
[Cb cap]
+20.0 +18.3 90 +23 +23 комфорт 1007.4 985.3
15 17.08 З 1 50 км {гроза, ливн. осадки} 9/9 600 м
[Sc diur, vesp]
+17.6 +17.1 97 +19 +19 1008.3 986.1 34
18 17.08 штиль 0 10 км {гроза, ливн. осадки} 8/3 600 м
[Sc diur, vesp Ci fib]
+17.2 +16.7 97 +17 +17 1008.9 986.6 +22.0 34
21 17.08 З 1 10 км 10/0
[As op]
+16.9 +16.2 96 +18 +18 1009.0 986.7
00 18.08 З 1 10 км 10/0
[As op]
+15.8 +15.1 96 +16 +16 1009.5 987.1
03 18.08 З 1 10 км 10/10 600 м
[Sc]
+15.2 +14.3 94 +16 +16 1009.9 987.4 +15.2
06 18.08 ЮЗ 1 50 км 10/10 600 м
[Sc]
+15.8 +13.7 87 +16 +16 1011.1 988.6 +14.8
09 18.08 З 2 50 км 9/9 600 м
[Sc]
+18.2 +13.8 75 +19 +20 1011.5 989.2
12 18.08 З 2 50 км 9/9 600 м
[Sc]
+18.9 +14.0 73 +20 +21 1012.8 990.6
15 18.08 З 2 50 км 10/10 600 м
[Cb calv]
+18.2 +13.8 75 +19 +19 1013.9 991.6
18 18.08 штиль 0 10 км 8/8 600 м
[Sc]
+15.6 +14.1 91 +15 +15 1015.2 992.7 +19.6
21 18.08 ЮВ 1 10 км 8/0
[Ac As]
+14.4 +13.7 96 +15 +15 1016.6 993.9
00 19.08 штиль 0 10 км 9/9 600 м
[Sc]
+13.3 +12.7 96 +13 +13 1016.6 993.8
03 19.08 штиль 0 10 км 10/10 600 м
[Cb calv]
+14.4 +13.8 96 +14 +14 1018.1 995.4 +13.2
06 19.08 З 2 50 км 6/6 600 м
[Sc diur, vesp]
+18.1 +13.7 75 +19 +21 1019.0 996.5 +13.2
09 19.08 СЗ 1 50 км 8/8 600 м
[Sc]
+23.0 +14.4 58 +27 +30 душно 1018.8 996.7
12 19.08 СВ 1 50 км 6/6 600 м
[Cb calv]
+26.1 +13.2 45 +28 +32 жарко 1018.7 996.8
15 19.08 СВ 1 50 км 3/3 1000 м
[Cu med, cong]
+25.6 +12.3 44 +27 +28 жарко 1018.8 996.9
18 19.08 штиль 0 10 км ясно +19.4 +14.7 74 +21 +21 комфорт 1020.5 998.1 +26.3
21 19.08 штиль 0 10 км ясно +15.7 +14.5 93 +15 +15 1021.4 998.7
00 20.08 штиль 0 10 км ясно +14.0 +13.4 96 +14 +14 1021.5 998.7
03 20.08 штиль 0 10 км ясно +12.7 +12.3 97 +12 +12 1022.6 999.7 +12.4
06 20.08 штиль 0 50 км ясно +21.6 +16.2 71 +25 +33 комфорт 1022.9 1000.6 +12.4
09 20.08 Ю 1 50 км 3/3 600 м
[Cu hum]
+27.2 +13.0 41 +29 +39 жарко 1022.2 1000.4
12 20.08 В 1 50 км ясно +28.5 +18.6 55 +34 +45 очень
душно
1021.5 999.7
15 20.08 В 1 50 км ?/? +28.4 +11.2 34 +29 +31 жарко 1021.3 999.5
18 20.08 штиль 0 10 км ясно +19.5 +14.4 72 +21 +21 комфорт 1023.2 1000.7 +29.5
21 20.08 штиль 0 10 км ясно +16.6 +14.2 86 +16 +16 1023.8 1001.1
00 21.08 штиль 0 10 км ясно +13.8 +12.8 94 +13 +13 1024.1 1001.2
03 21.08 штиль 0 10 км ясно +12.7 +11.8 94 +12 +12 1024.5 1001.5 +12.6
06 21.08 СВ 1 50 км ясно +23.8 +13.8 53 +26 +33 жарко 1024.1 1002.0 +12.6
09 21.08 В 2 50 км ясно +28.0 +12.5 38 +29 +42 жарко 1022.9 1001.1
12 21.08 В 2 50 км ясно +29.4 +12.6 36 +31 +40 жарко 1021.4 999.7
15 21.08 В 1 50 км ясно +28.6 +12.3 37 +30 +31 жарко 1020.3 998.5
18 21.08 С 1 10 км ясно +20.7 +15.3 71 +25 +25 комфорт 1021.1 998.8 +29.9
21 21.08 СВ 1 10 км ясно +18.2 +14.4 78 +20 +20 1021.3 998.8
00 22.08 СВ 1 10 км ясно +15.3 +13.8 91 +16 +16 1021.3 998.6
03 22.08 штиль 0 10 км ясно +14.7 +13.4 92 +14 +14 1021.3 998.5 +14.2
06 22.08 штиль 0 50 км ?/? +23.7 +15.5 60 +27 +27 жарко 1020.9 998.8 +14.2
09 22.08 В 1 50 км 3/3 600 м
[Cu hum]
+28.9 +13.2 38 +30 +41 жарко 1020.1 998.4
12 22.08 В 2 50 км 6/0
[Ci]
+29.8 +11.7 33 +30 +38 жарко 1019.8 998.2
15 22.08 штиль 0 50 км 6/0
[Ci]
+27.7 +13.5 42 +30 +31 жарко 1019.7 998.0
18 22.08 штиль 0 10 км 8/0
[Ac lent]
+22.0 +14.6 63 +25 +25 комфорт 1020.7 998.5 +30.2
21 22.08 В 1 10 км ясно +20.3 +17.2 82 +25 +25 комфорт 1022.0 996.4
00 23.08 СВ 1 10 км ясно +17.8 +15.4 86 +19 +19 1023.0 1000.4
03 23.08 В 1 10 км ясно +16.3 +14.0 86 +17 +17 1023.6 1000.9 +16.3

 

Местоположение метеостанции Обоянь (Курская область, Россия): широта 51.20 долгота 36.32 высота над уровнем моря 192 м.

В архиве по умолчанию представлена погода в Обояни за последнюю неделю. Архивные данные за месяц целиком и за предыдущие месяцы, начиная с января 2011 года, Вы можете получить, выбрав интересующий диапазон дат из раскрывающегося списка и нажав кнопку "Ввод!".


*Определитесь, кто Вы:
робот инопланетянин человек

Внимание! Время в таблицах - всемирное. Для получения местного времени необходимо прибавить поправку, которая равна 3 ч.

Смотрите также архив погоды в соседних городах и на ближайших метеорологических станциях:

Погода в Готне (Белгородская область, Россия) (59 км)
Погода в Курске (Курская область, Россия) (64 км)
Погода в Белгороде (Белгородская область, Россия) (66 км)
Погода в Курчатове (Курская область, Россия) (67 км)
Погода в Богородицком (Белгородская область, Россия) (72 км)
Погода в Тиме (Курская область, Россия) (73 км)
Погода в Фатеже (Курская область, Россия) (103 км)
Погода в Золочеве (Львовская область, Украина) (103 км)
Погода в Старом Осколе (Белгородская область, Россия) (109 км)
Погода в Новом Осколе (Белгородская область, Россия) (120 км)

Пояснения к столбцам:

Ветер - указаны скорость ветра в м/с - средняя за 10 мин, порывы в срок и между сроками (в фигурных скобках) и направление, откуда дует ветер: С - северный, СВ - северо-восточный, В - восточный, ЮВ - юго-восточный, Ю - южный, ЮЗ - юго-западный, З - западный, СЗ - северо-западный.
Видимость - горизонтальная дальность видимости в метрах или километрах. При видимости от 1 до 10 км при отсутствии осадков обычно наблюдается дымка, при ухудшении видимости до 1 км и менее - туман. В сухую погоду видимость может ухудшаться дымом, пылью или мглою.
Явления - указаны атмосферные явления, наблюдавшиеся в срок или в последний час перед сроком; фигурными скобками обозначены явления, наблюдавшиеся между сроками (за 1-3 часа до срока); квадратными скобками обозначены град или гололедные отложения с указанием их диаметра в мм.
Облачность - указаны через наклонную черту общая и нижняя облачность в баллах и высота нижней границы облаков в метрах; квадратными скобками обозначены формы облаков: Ci - перистые, Cs - перисто-слоистые, Cc - перисто-кучевые, Ac - высококучевые, As - высокослоистые, Sc - слоисто-кучевые, Ns - слоисто-дождевые, Cu - кучевые, Cb - кучево-дождевые. Подробнее классификацию облаков см. в Атласе облаков (PDF).
T - Температура воздуха - температура, измеренная на высоте 2 м над землей.
Td - Температура точки росы - температура, при понижении до которой содержащийся в воздухе водяной пар достигнет насыщения.
f - Относительная влажность воздуха - влажноcть воздуха, измеренная на высоте 2 м над землей.
Te - Эффективная температура - температура, которую ощущает одетый по сезону человек в тени. Характеристика душности погоды. При расчете учитывается влияние влажности воздуха и скорости ветра на теплоощущения человека.
Tes - Эффективная температура на солнце - температура, которую ощущает человек, с поправкой на солнечный нагрев. Характеристика знойности погоды. Зависит от высоты солнца над горизонтом, облачности и скорости ветра. Ночью, в пасмурную погоду, а также при ветре 12 м/с и более поправка равна нулю.
P - Атмосферное давление - приведенное к уровню моря атмосферное давление.
Po - Атмосферное давление - измеренное на уровне метеостанции атмосферное давление.
Tmin - Минимальная температура - минимум температуры воздуха на высоте 2 м над землей.
Tmax - Максимальная температура - максимум температуры воздуха на высоте 2 м над землей.
R - Количество осадков - Количество выпавших осадков за период времени, мм. При наведении курсора мыши на число - период времени, за который выпало указанное количество осадков.
R24 - Количество осадков - Количество выпавших осадков за 24 часа, мм.
S - Снежный покров - Высота снежного покрова, см. При наведении курсора мыши на число - состояние снежного покрова и степень покрытия местности в баллах.